Location: *
(43.4667°N, 11.6833°E)
Time: 02:33:11
(UTC+00:00)

Cosmos 540 Rocket - Pass Details

Date: 19 July 2019
Orbit: 740 x 753 km, 74.1° (Epoch: 21 August)

Event Time Altitude Azimuth Distance (km) Brightness Sun altitude
Rises 22:32:10 0° 344° (NNW) 3,190 8.1 -24.9°
Reaches altitude 10° 22:34:37 10° 350° (N) 2,264 7.0 -24.9°
Maximum altitude 22:39:35 49° 65° (ENE) 959 4.0 -25.1°
Enters shadow 22:40:18 45° 92° (E) 1,004 3.9 -25.1°
